Weather History for Horseshoe Bay, TX

Change the Weather History Date:

Thursday, May 29, 2014

  Actual Average (KBMQ) Record (KBMQ)
Temperature  
Mean Temperature 74 °F -  
Max Temperature 88 °F 86 °F 95 °F (2012)
Min Temperature 61 °F 65 °F 60 °F (2003)
Cooling Degree Days 10    
Growing Degree Days 24 (Base 50)    
Moisture  
Dew Point 62 °F    
Average Humidity 68    
Maximum Humidity 100    
Minimum Humidity 37    
Precipitation  
Precipitation 0.00 in - - ()
Sea Level Pressure  
Sea Level Pressure 29.89 in    
Wind  
Wind Speed 2 mph (NNW)    
Max Wind Speed 8 mph    
Max Gust Speed -    
Visibility 10 miles    
Events      
Averages and records for this station are not official NWS values.
T = Trace of Precipitation, MM = Missing Value Source: NWS Daily Summary

Daily Weather History Graph

Daily Weather History Graph

Search for Another Location

Airport:

Trip Planner

Search our weather history database for the weather conditions in past years. The results will help you decide how hot, cold, wet, or windy it might be!

Date:

Astronomy

May. 29, 2014 Rise Set
Actual Time 5:32 AM MDT 7:29 PM MDT
Civil Twilight 5:05 AM MDT 7:56 PM MDT
Nautical Twilight 4:32 AM MDT 8:29 PM MDT
Astronomical Twilight 3:57 AM MDT 9:04 PM MDT
Moon 6:23 AM MDT (5/29) 8:24 PM MDT (5/29)
Length of Visible Light 14h 51m
Length of Day
13h 57m
New Moon, 1% of the Moon is Illuminated
May 29
New Moon
Jun 5
First Quarter
Jun 12
Full
Jun 19
Last Quarter
Jun 27
New

Hourly Weather History & Observations

Time (MDT) Temp. Heat Index Dew Point Humidity Pressure Visibility Wind Dir Wind Speed Gust Speed Precip Events Conditions
12:15 AM 65.3 °F - 62.2 °F 90% 29.90 in 10.0 mi South 3.5 mph - N/A   Clear
12:35 AM 65.3 °F - 62.1 °F 89% 29.90 in 10.0 mi Calm Calm - N/A   Clear
12:55 AM 64.8 °F - 62.1 °F 91% 29.90 in 10.0 mi South 3.5 mph - N/A   Clear
1:15 AM 64.4 °F - 62.4 °F 93% 29.90 in 10.0 mi Calm Calm - N/A   Clear
1:35 AM 64.4 °F - 62.1 °F 92% 29.90 in 10.0 mi Calm Calm - N/A   Clear
1:55 AM 64.0 °F - 62.1 °F 93% 29.90 in 10.0 mi Calm Calm - N/A   Clear
2:15 AM 64.0 °F - 61.7 °F 92% 29.90 in 10.0 mi South 3.5 mph - N/A   Clear
2:35 AM 64.0 °F - 61.5 °F 91% 29.90 in 10.0 mi South 3.5 mph - N/A   Clear
3:15 AM 63.5 °F - 61.9 °F 94% 29.90 in 10.0 mi SSW 3.5 mph - N/A   Clear
3:35 AM 63.3 °F - 63.1 °F 99% 29.90 in 10.0 mi Calm Calm - N/A   Clear
3:55 AM 63.5 °F - 63.3 °F 99% 29.91 in 10.0 mi Calm Calm - N/A   Clear
4:15 AM 62.8 °F - 62.8 °F 100% 29.91 in 10.0 mi Calm Calm - N/A   Clear
4:35 AM 62.6 °F - 62.6 °F 100% 29.91 in 10.0 mi Calm Calm - N/A   Clear
4:55 AM 62.2 °F - 62.2 °F 100% 29.90 in 10.0 mi Calm Calm - N/A   Clear
5:15 AM 61.9 °F - 61.9 °F 100% 29.90 in 10.0 mi Calm Calm - N/A   Clear
5:35 AM 62.1 °F - 62.1 °F 100% 29.91 in 10.0 mi Calm Calm - N/A   Clear
5:55 AM 62.1 °F - 62.1 °F 100% 29.91 in 10.0 mi Calm Calm - N/A   Clear
6:15 AM 63.5 °F - 63.5 °F 100% 29.92 in 10.0 mi Calm Calm - N/A   Clear
6:35 AM 66.6 °F - 61.5 °F 84% 29.92 in 10.0 mi Calm Calm - N/A   Clear
6:55 AM 68.5 °F - 61.9 °F 79% 29.92 in 10.0 mi Calm Calm - N/A   Clear
7:15 AM 70.0 °F - 61.7 °F 75% 29.93 in 10.0 mi Calm Calm - N/A   Clear
7:35 AM 71.2 °F - 61.5 °F 71% 29.94 in 10.0 mi Calm Calm - N/A   Clear
7:55 AM 72.1 °F - 61.2 °F 68% 29.94 in 10.0 mi West 3.5 mph - N/A   Clear
8:15 AM 73.6 °F - 62.1 °F 67% 29.94 in 10.0 mi NW 5.8 mph - N/A   Clear
8:35 AM 74.5 °F - 61.9 °F 65% 29.94 in 10.0 mi NNW 4.6 mph - N/A   Clear
8:55 AM 75.7 °F - 62.1 °F 62% 29.94 in 10.0 mi Calm Calm - N/A   Clear
9:15 AM 77.5 °F - 61.2 °F 57% 29.94 in 10.0 mi WNW 4.6 mph - N/A   Clear
9:35 AM 78.8 °F - 61.3 °F 55% 29.94 in 10.0 mi NNW 3.5 mph - N/A   Clear
9:55 AM 79.7 °F - 61.0 °F 53% 29.94 in 10.0 mi North 5.8 mph - N/A   Clear
10:15 AM 80.8 °F 81.5 °F 60.4 °F 50% 29.94 in 10.0 mi North 5.8 mph - N/A   Clear
10:35 AM 79.3 °F - 60.1 °F 52% 29.94 in 10.0 mi NW 6.9 mph - N/A   Clear
10:55 AM 82.0 °F 82.4 °F 60.3 °F 47% 29.93 in 10.0 mi North 3.5 mph - N/A   Scattered Clouds
11:15 AM 82.6 °F 82.8 °F 59.9 °F 46% 29.93 in 10.0 mi North 5.8 mph - N/A   Scattered Clouds
11:35 AM 83.3 °F 83.4 °F 59.9 °F 45% 29.92 in 10.0 mi North 6.9 mph - N/A   Scattered Clouds
12:15 PM 83.3 °F 83.2 °F 59.2 °F 44% 29.92 in 10.0 mi North 5.8 mph - N/A   Mostly Cloudy
12:35 PM 84.7 °F 84.4 °F 59.2 °F 42% 29.91 in 10.0 mi North 5.8 mph - N/A   Mostly Cloudy
12:55 PM 84.9 °F 85.0 °F 60.4 °F 44% 29.90 in 10.0 mi NNE 4.6 mph - N/A   Overcast
1:15 PM 85.3 °F 85.0 °F 59.9 °F 42% 29.90 in 10.0 mi NNE 5.8 mph - N/A   Mostly Cloudy
1:35 PM 84.7 °F 84.6 °F 59.9 °F 43% 29.90 in 10.0 mi North 6.9 mph - N/A   Scattered Clouds
1:55 PM 86.2 °F 85.9 °F 60.1 °F 41% 29.90 in 10.0 mi North 8.1 mph - N/A   Scattered Clouds
2:15 PM 85.8 °F 85.4 °F 59.5 °F 41% 29.89 in 10.0 mi North 4.6 mph - N/A   Scattered Clouds
2:35 PM 86.2 °F 85.6 °F 59.2 °F 40% 29.88 in 10.0 mi NNE 3.5 mph - N/A   Scattered Clouds
2:55 PM 88.0 °F 87.4 °F 59.5 °F 38% 29.87 in 10.0 mi North 5.8 mph - N/A   Scattered Clouds
3:15 PM 86.5 °F 86.1 °F 59.9 °F 40% 29.87 in 10.0 mi NNW 4.6 mph - N/A   Scattered Clouds
3:35 PM 86.5 °F 86.1 °F 59.5 °F 40% 29.86 in 10.0 mi Calm Calm - N/A   Scattered Clouds
3:55 PM 85.1 °F 84.4 °F 58.3 °F 40% 29.85 in 10.0 mi Calm Calm - N/A   Mostly Cloudy
4:15 PM 84.6 °F 84.0 °F 58.5 °F 41% 29.85 in 10.0 mi North 4.6 mph - N/A   Overcast
4:35 PM 83.5 °F 83.2 °F 58.6 °F 43% 29.85 in 10.0 mi Calm Calm - N/A   Scattered Clouds
4:55 PM 86.5 °F 85.4 °F 57.4 °F 37% 29.84 in 10.0 mi Calm Calm - N/A   Scattered Clouds
5:15 PM 84.7 °F 84.2 °F 58.3 °F 41% 29.84 in 10.0 mi North 3.5 mph - N/A   Mostly Cloudy
5:35 PM 83.7 °F 83.4 °F 59.0 °F 43% 29.84 in 10.0 mi NE 3.5 mph - N/A   Mostly Cloudy
5:55 PM 84.2 °F 84.2 °F 60.1 °F 44% 29.83 in 10.0 mi ENE 3.5 mph - N/A   Mostly Cloudy
6:15 PM 83.7 °F 83.3 °F 58.3 °F 42% 29.84 in 10.0 mi Calm Calm - N/A   Mostly Cloudy
6:35 PM 83.3 °F 83.4 °F 60.1 °F 45% 29.84 in 10.0 mi Calm Calm - N/A   Mostly Cloudy
6:55 PM 82.8 °F 83.1 °F 60.4 °F 47% 29.85 in 10.0 mi Calm Calm - N/A   Mostly Cloudy
7:15 PM 81.5 °F 82.2 °F 61.2 °F 50% 29.85 in 10.0 mi Calm Calm - N/A   Scattered Clouds
7:55 PM 76.6 °F - 65.3 °F 68% 29.85 in 10.0 mi Calm Calm - N/A   Clear
8:15 PM 74.8 °F - 65.5 °F 73% 29.86 in 10.0 mi Calm Calm - N/A   Clear
8:35 PM 73.8 °F - 66.2 °F 77% 29.86 in 10.0 mi Calm Calm - N/A   Clear
8:55 PM 72.9 °F - 65.7 °F 78% 29.87 in 10.0 mi Calm Calm - N/A   Clear
9:15 PM 72.9 °F - 64.9 °F 76% 29.87 in 10.0 mi Calm Calm - N/A   Clear
9:35 PM 71.8 °F - 64.9 °F 79% 29.88 in 10.0 mi Calm Calm - N/A   Clear
9:55 PM 71.1 °F - 65.3 °F 82% 29.88 in 10.0 mi Calm Calm - N/A   Clear
10:15 PM 70.7 °F - 65.5 °F 83% 29.88 in 10.0 mi Calm Calm - N/A   Clear
10:35 PM 69.8 °F - 65.3 °F 86% 29.88 in 10.0 mi Calm Calm - N/A   Clear
10:55 PM 69.8 °F - 64.8 °F 84% 29.89 in 10.0 mi Calm Calm - N/A   Clear
11:15 PM 69.6 °F - 64.6 °F 84% 29.88 in 10.0 mi Calm Calm - N/A   Clear
11:35 PM 69.1 °F - 64.4 °F 85% 29.89 in 10.0 mi Calm Calm - N/A   Clear
11:55 PM 68.9 °F - 64.4 °F 86% 29.89 in 10.0 mi Calm Calm - N/A   Clear